Location: Newark
(46.7000°N, 60.6000°W)
Time: 05:13:15
(UTC+00:00)

Transit 2A Rocket - Pass Details

Date: 02 November 2020
Orbit: 588 x 914 km, 66.7° (Epoch: 27 November)

Event Time Altitude Azimuth Distance (km) Brightness Sun altitude
Rises 22:39:18 0° 310° (NW) 3,206 9.0 -20.0°
Reaches altitude 10° 22:43:10 10° 282° (WNW) 2,191 8.5 -20.7°
Maximum altitude 22:45:10 12° 258° (WSW) 1,987 8.2 -21.0°
Drops below altitude 10° 22:47:05 10° 234° (SW) 2,103 8.0 -21.4°
Sets 22:50:38 0° 204° (SSW) 2,939 8.3 -22.0°
